Regional Weather Roundup
Issued by NWS

Home | Current Version | Previous Version | Graphics & Text | Print | Product List | Glossary Off
Versions: 1 2 3 4 5 6 7 8 9 10 11 12 13 14 15 16 17 18 19 20 21 22 23 24 25 26 27 28 29 30 31 32 33 34 35 36 37 38 39 40 41 42 43 44 45 46 47 48 49 50

000
ASUS43 KDMX 061907
RWRIA

WEATHER ROUNDUP FOR IOWA
NATIONAL WEATHER SERVICE DES MOINES IA
200 PM CDT MON JUL 06 2015

NOTE: "FAIR" INDICATES FEW OR NO CLOUDS BELOW 12,000 FEET WITH NO
SIGNIFICANT WEATHER AND/OR OBSTRUCTIONS TO VISIBILITY.

* - THESE STATIONS ARE NOT NWS STATIONS...THUS NOT UNDER NWS
QUALITY CONTROL.  THEY ALSO DO NOT REPORT WEATHER SUCH
AS PRECIPITATION OR FOG.

IAZ001>003-012>014-020>022-031>034-043>046-062000-
   NORTHWEST IOWA

CITY           SKY/WX    TMP DP  RH WIND       PRES   REMARKS
CARROLL *      CLOUDY    77  72  83 W8        29.90S
CHEROKEE *     CLOUDY    72  63  73 N14G21    29.95R HAZE
DENISON *      PTSUNNY   75  72  88 W7        29.90R
LE MARS *      PTSUNNY   73  66  78 N14G22    29.97R
ORANGE CITY *  MOSUNNY   72  61  68 N20       29.97R
SHELDON *      PTSUNNY   72  70  94 N21       29.96R FOG
SIOUX CITY     CLOUDY    73  66  78 N18       29.95R
SPENCER        CLOUDY    73  61  65 N17G28    29.95R HAZE
STORM LAKE *   CLOUDY    68  63  83 N20       29.95R HAZE
$$

IAZ055>058-069>071-079>083-090>094-062000-
   SOUTHWEST IOWA

CITY           SKY/WX    TMP DP  RH WIND       PRES   REMARKS
ATLANTIC *     HVY RAIN  72  72 100 NW7       29.92R
AUDUBON *      MOSUNNY   73  70  88 CALM      29.93R
CLARINDA *     CLOUDY    81  77  89 CALM      29.89R HX  88
COUNCIL BLFS * CLOUDY    73  72  94 CALM      29.93S
CRESTON *      CLOUDY    75  73  94 CALM      29.90S
HARLAN  *      PTSUNNY   75  75 100 SW8       29.95S
LAMONI         LGT RAIN  80  75  84 SW5       29.88F HX  85
RED OAK *      CLOUDY    75  72  88 N10G17    29.90S
SHENANDOAH *   PTSUNNY   79  75  89 NW8       29.89S HX  82
$$

IAZ047>049-059>061-072>074-084-062000-
   CENTRAL IOWA

CITY           SKY/WX    TMP DP  RH WIND       PRES   REMARKS
AMES           LGT RAIN  73  70  90 W6        29.88S
ANKENY *       RAIN      75  72  88 W7        29.87F
CHARITON *     LGT RAIN  79  75  89 S7        29.88S HX  82
DES MOINES     LGT RAIN  77  70  79 NW10      29.88R
GRINNELL*      CLOUDY    77  72  83 SW6       29.89S
KNOXVILLE *    CLOUDY    77  75  94 S5        29.86S
MARSHALLTOWN   LGT RAIN  75  73  93 SW8       29.87F FOG
PELLA *        CLOUDY    77  77 100 SW3       29.88S
PERRY *        CLOUDY    72  70  94 W7        29.89S
$$

IAZ004>006-015-016-023>025-035-036-062000-
   NORTH CENTRAL IOWA

CITY           SKY/WX    TMP DP  RH WIND       PRES   REMARKS
ALGONA *       CLOUDY    70  64  83 N17G26    29.92R
CLARION *      CLOUDY    75  70  83 W16G22    29.88R
ESTHERVILLE    CLOUDY    71  59  65 N17G28    29.94R HAZE
FORT DODGE *   CLOUDY    79  72  78 W13       29.89F HX  82
MASON CITY     CLOUDY    79  69  71 W21       29.87S HX  81
FOREST CITY *  RAIN      68  68 100 NW18G26   29.89R
IOWA FALLS *   CLOUDY    75  72  88 S10       29.88F
$$

IAZ007>011-017>019-026>030-037>042-050>054-066-062000-
   NORTHEAST IOWA

CITY           SKY/WX    TMP DP  RH WIND       PRES   REMARKS
CEDAR RAPIDS   CLOUDY    77  72  84 S10       29.88R
CHARLES CITY * CLOUDY    75  75 100 W9        29.86S
CLINTON *      CLOUDY    75  72  88 S8        29.92S
DECORAH *        N/A    N/A N/A N/A MISG        N/A
DUBUQUE        CLOUDY    76  71  85 S17       29.87R
MONTICELLO *   PTSUNNY   77  73  88 S13G21    29.86S
OELWEIN *      CLOUDY    75  72  88 SW15G22   29.88R
WATERLOO       CLOUDY    77  72  84 SW12      29.86R
$$

IAZ064-065-067-068-078-062000-
   EAST CENTRAL IOWA

CITY           SKY/WX    TMP DP  RH WIND       PRES   REMARKS
DAVENPORT      CLOUDY    78  71  79 W9        29.91S HX  80
IOWA CITY      LGT RAIN  76  73  91 S9        29.88S FOG
MT. PLEASANT * CLOUDY    86  70  58 S12       29.88F HX  90
MUSCATINE *    CLOUDY    82  73  74 S9        29.88F HX  88
QUAD CITIES    CLOUDY    81  71  71 SW10      29.88F HX  85
$$

IAZ062-063-075>077-085>089-095>099-062000-
   SOUTHEAST IOWA

CITY           SKY/WX    TMP DP  RH WIND       PRES   REMARKS
BURLINGTON     CLOUDY    84  76  76 S13       29.89F HX  93
FAIRFIELD *    PTSUNNY   82  73  74 S8G18     29.88F HX  88
FORT MADISON * MOSUNNY   82  75  78 S10       29.91F HX  89
KEOKUK *       MOSUNNY   84  75  74 S10G17    29.89F HX  92
OSKALOOSA *    LGT RAIN  79  73  83 CALM      29.87F HX  82
CENTERVILLE *  PTSUNNY   79  75  89 SW5       29.90F HX  82
OTTUMWA        LGT RAIN  80  75  84 CALM      29.86F HX  85
WASHINGTON *   MOSUNNY   82  75  78 S10       29.89F HX  89
$$

ABBREVIATIONS USED IN REMARKS
   TC - TEMPERATURES IN CELSIUS
  WCI - WIND CHILL INDEX
   HX - HEAT INDEX
  VSB - VISIBILITY
$$



USA.gov is the U.S. government's official web portal to all federal, state and local government web resources and services.